OPS 4682 DEB, 38418

Orbit data source: Space-Track

OPS 4682 DEB, 38418 is space debris in LEO originally from a launch on Sat, 03 Apr 1965 UTC launched from the Air Force Western Test Range (AFWTR). Debris objects in space refer to the collection of defunct objects orbiting the Earth. Examples of debris include non-operational satellites, rocket bodies, and fragments generated from explosions, collisions, or faulty payload assembly.

Loading next visibility...
Identifier
38418, 1965-027DX
Orbit
LEO
Country
Flag of USUS
Related business
Manufacturer
Unknown
Mission
Spacecraft
Bus & Motor
Unknown
Mass
Unknown
Launch date (UTC)
1965-04-03 (61 years ago)
Launch vehicle
Unknown
Launch site
Air Force Western Test Range (AFWTR)
Object type
Payload
Rocket body
Debris
Shape & HBR
Unknown shape, 0.1 m
Radar Cross Section
Small (<0.1 m²)

Expand to show TLE details & history
Last TLE update: 7 hours ago

TLE from 7 hours ago
0 OPS 4682 DEB
1 38418U 65027DX  26119.43804214  .00001002  00000-0  32562-2 0  9992
2 38418  90.2438   7.6871 0030049 349.4092  10.6394 13.00967048545216
Epoch: 2026-04-29T10:30Z
TLE epoch observation values (Epoch: 2026-04-29T10:30:46.840Z)
Latitude
-0.00007°
Longitude
-7.40707°
Altitude
1,238.631 km
Speed
7.246 km/s
True Right ascension
00h 30m 44s
True Declination
0° 00' 00"
Sunlit
Object was in daylight at epoch
Visualization orbit readout
Latitude
Unknown
Longitude
Unknown
Altitude
Unknown
Speed
Unknown
Apparent Right ascension
Unknown
Apparent Declination
Unknown
Sunlit
N/A
Visualization observer readout
Local Sidereal Time
00:35:24
Azimuth
Unknown
Elevation
Unknown
Doppler factor
Unknown
Orbital elements
Apogee altitude
1,278.364 km
Perigee altitude
1,232.487 km
Semi-major axis
7,633.563 km
Eccentricity
0.003
Inclination
90.2438°
RAAN
7.6871°
Arg. of periapsis
349.4092°
True anomaly
10.70321°
Mean anomaly
10.6394°
Eccentric anomaly
10.67128°
Mean motion
3.25426 °/min
Orbital period
110.62 mins
BSTAR
0.0032562
Loading maneuver chart data...
Computing Atmospheric mass density...
Loading historical data...
Loading historical data...
Loading historical data...
Loading historical data...
Loading historical data...
Loading historical data...
Loading historical data...

Documentation

Showing up to 5 results
|